Location: ??????
(55.2000°N, 38.3000°E)
Time: 19:10:07
(UTC+00:00)

PKM - Pass Details

Date: 15 November 2025
Orbit: 394 x 13733 km, 55.4° (Epoch: 14 December)

Event Time Altitude Azimuth Distance (km) Brightness Sun altitude
Exits shadow 03:19:04 20° 283° (WNW) 2,105 6.1 -14.0°
Maximum altitude 03:22:45 61° 207° (SSW) 688 4.2 -13.5°
Drops below altitude 10° 03:25:37 10° 126° (SE) 1,550 7.3 -13.1°
Sets 03:27:09 0° 121° (ESE) 2,307 8.6 -12.9°
